Flag for Germany Weather past 2 weeks in Fürstenfeldbruck, Bavaria, Germany

Now
32 °F

Passing clouds.


Feels Like: 26 °F
Forecast: 29 / 36 °F
Wind: 6 mph from Southwest

Location: Lechfeld

Current Time: Mar 4, 2015 at 6:32:06 AM

Latest Report: Mar 4, 2015 at 5:20 AM


Visibility: N/A

Pressure: 30.18 "Hg

Humidity: 100%

Dew point: 32 °F

Location of FürstenfeldbruckLocation

Historic Weather in Fürstenfeldbruck — Graph

°F

Fürstenfeldbruck temperature yesterday

Maximum temperature yesterday: 46 °F (at 3:20 PM)
Minimum temperature yesterday: 32 °F (at 5:20 AM)
Average temperature yesterday: 38 °F

Past Weeks' High & Low Weather Summary

 TemperatureHumidityPressure
High50 °F (Feb 20, 2:20 PM)100% (Feb 17, 6:20 AM)30.69 "Hg (Feb 17, 6:20 AM)
Low18 °F (Feb 23, 3:20 AM)30% (Feb 20, 2:20 PM)29.47 "Hg (Feb 21, 1:20 PM)
Average33 °F84%30.02 "Hg
* Reported Feb 17 5:20 AM — Mar 4 5:20 AM, Fürstenfeldbruck, Weather by CustomWeather, © 2015

Note: Actual official high and low records may vary slightly from our data, if they occured in-between our weather recording intervals... More about our weather records

Advertising

Fürstenfeldbruck weather history for previous 24 hours

 ConditionsComfort  
Time TempWeatherWind HumidityBarometerVisibility
5:20 AM
Wed, Mar 4
32 °FPassing clouds.6 mph100%30.18 "HgN/A
4:49 AM32 °FLight snow. Passing clouds.6 mph100%30.18 "Hg4 mi
4:20 AM34 °FLight snow. Partly cloudy.8 mph93%30.18 "Hg3 mi
3:20 AM36 °FRain showers. Fog.14 mph93%30.15 "Hg1 mi
2:46 AM39 °FLight rain. Partly cloudy.12 mph81%30.12 "HgN/A
2:20 AM39 °FLight rain. Passing clouds.15 mph81%30.12 "HgN/A
1:20 AM41 °FLight rain. Partly cloudy.16 mph66%30.12 "HgN/A
12:20 AM41 °FPassing clouds.10 mph61%30.12 "HgN/A
11:20 PM
Tue, Mar 3
39 °FPassing clouds.7 mph65%30.12 "HgN/A
10:20 PM39 °FPartly cloudy.9 mph65%30.12 "HgN/A
9:20 PM39 °FPassing clouds.9 mph65%30.12 "HgN/A
8:20 PM37 °FPassing clouds.7 mph65%30.12 "HgN/A
7:20 PM39 °FPassing clouds.8 mph61%30.12 "HgN/A
6:20 PM41 °FPassing clouds.7 mph57%30.12 "HgN/A
5:20 PM45 °FScattered clouds.8 mph49%30.12 "HgN/A
4:20 PM46 °FScattered clouds.13 mph43%30.15 "HgN/A
3:20 PM46 °FPassing clouds.13 mph43%30.15 "HgN/A
2:20 PM45 °FPassing clouds.13 mph49%30.15 "HgN/A
1:20 PM43 °FPassing clouds.10 mph53%30.18 "HgN/A
12:20 PM43 °FPassing clouds.12 mph53%30.21 "HgN/A
11:20 AM41 °FPassing clouds.13 mph57%30.21 "HgN/A
10:20 AM39 °FPassing clouds.14 mph61%30.21 "HgN/A
9:20 AM37 °FPassing clouds.10 mph70%30.21 "HgN/A
8:20 AM36 °FScattered clouds.9 mph75%30.18 "HgN/A
7:20 AM32 °FPartly sunny.10 mph80%30.18 "HgN/A
6:20 AM32 °FPassing clouds.8 mph80%30.18 "HgN/A
Weather by CustomWeather, © 2015

See weather overviewHow to use our weather pages